THOR ABLESTAR DEB, 653

Orbit data source: Space-Track

THOR ABLESTAR DEB, 653 is space debris in LEO originally from a launch on Thu, 29 Jun 1961 UTC launched from the Air Force Eastern Test Range (AFETR). Debris objects in space refer to the collection of defunct objects orbiting the Earth. Examples of debris include non-operational satellites, rocket bodies, and fragments generated from explosions, collisions, or faulty payload assembly.

Loading next visibility...
Identifier
653, 1961-015HE
Orbit
LEO
Country
Flag of USUS
Related business
Manufacturer
Unknown
Mission
Spacecraft
Bus & Motor
Unknown
Mass
Unknown
Launch date (UTC)
1961-06-29 (64 years ago)
Launch vehicle
Unknown
Launch site
Air Force Eastern Test Range (AFETR)
Object type
Payload
Rocket body
Debris
Shape & HBR
Unknown shape, 0.1 m
Radar Cross Section
Small (<0.1 m²)

Expand to show TLE details & history
Last TLE update: 21 hours ago

TLE from 21 hours ago
0 THOR ABLESTAR DEB
1 00653U 61015HE  25351.80787867  .00000700  00000-0  80246-3 0  9994
2 00653  67.4494 225.4667 0153659 123.6237 321.0098 13.70098948193033
Epoch: 2025-12-17T19:23Z
TLE epoch observation values (Epoch: 2025-12-17T19:23:20.717Z)
Latitude
66.68836°
Longitude
-78.58603°
Altitude
922.544 km
Speed
7.441 km/s
True Right ascension
19h 55m 41s
True Declination
66° 33' 57"
Sunlit
Object was in daylight at epoch
Visualization orbit readout
Latitude
Unknown
Longitude
Unknown
Altitude
Unknown
Speed
Unknown
Apparent Right ascension
Unknown
Apparent Declination
Unknown
Sunlit
N/A
Visualization observer readout
Local Sidereal Time
14:51:20
Azimuth
Unknown
Elevation
Unknown
Doppler factor
Unknown
Orbital elements
Apogee altitude
1,110.886 km
Perigee altitude
884.218 km
Semi-major axis
7,375.689 km
Eccentricity
0.01537
Inclination
67.4494°
RAAN
225.4667°
Arg. of periapsis
123.6237°
True anomaly
319.88522°
Mean anomaly
321.0098°
Eccentric anomaly
320.44919°
Mean motion
3.42641 °/min
Orbital period
105.07 mins
BSTAR
0.00080246

Documentation

Showing up to 5 results
|